Wind_Speed
31 33 36 37 37 36 36 35 34 32 31 29 28 28 28 27 27 27 27 25 25 25 25 25 25 26 27 27 28 27 27 28 27 27 27 27 28 29 29 29 29 30 30
31 33 36 37 35 36 37 36 36 34 33 31 30 29 30 27 26 27 26 25 24 24 25 26 27 27 29 29 29 28 28 28 28 28 27 28 28 29 30 30 31 31 31
33 35 35 34 35 37 36 36 37 37 35 33 32 30 28 28 27 25 23 23 24 25 25 26 26 28 29 30 31 30 30 30 29 29 30 30 31 31 31 30 31 33 33
33 33 33 33 35 35 37 38 38 38 37 36 33 28 26 26 26 23 22 23 24 26 26 27 27 28 29 29 30 31 32 31 30 31 31 32 32 31 31 32 34 35 36
30 31 31 33 35 36 37 38 39 38 37 36 35 31 28 26 26 24 23 24 23 24 25 26 27 28 29 29 29 30 31 31 31 32 33 33 33 33 34 34 34 35 36
27 29 30 33 34 34 36 38 39 38 37 36 35 32 30 27 25 22 22 22 23 24 25 26 27 28 29 30 30 30 30 30 31 32 33 33 34 36 35 36 36 36 37
27 29 30 31 33 34 36 38 38 37 37 36 36 33 31 29 26 23 23 23 23 24 24 26 27 28 29 30 30 31 31 32 32 34 34 34 35 35 36 37 37 37 38
25 27 29 29 31 33 35 36 37 38 37 37 35 33 31 30 27 25 24 23 24 23 23 24 26 27 28 29 30 30 29 30 31 31 32 33 34 34 35 36 37 38 39
23 24 26 28 30 31 33 35 36 36 36 36 34 33 30 29 27 26 25 24 24 23 23 23 23 24 25 25 25 25 26 26 27 28 29 30 33 34 35 37 37 39 41
21 22 25 27 28 28 30 32 33 35 35 34 33 32 30 29 28 27 26 26 25 25 25 25 23 22 22 22 22 23 25 26 26 27 29 30 32 34 35 36 38 40 41
18 19 21 23 25 25 27 29 31 33 33 33 33 31 29 29 27 27 25 25 25 25 26 25 24 23 23 23 23 24 25 26 27 28 30 31 32 34 35 36 38 39 40
19 18 19 20 21 23 25 26 27 29 30 31 31 30 29 29 28 27 26 24 23 24 24 24 25 25 26 26 27 27 28 29 29 31 32 33 34 35 36 37 38 39 39
20 18 18 19 19 20 22 23 24 26 28 29 29 28 27 27 27 27 26 25 25 25 26 26 26 27 27 28 29 30 30 30 31 33 33 34 35 36 36 37 38 38 39
18 17 17 18 19 18 20 22 23 24 26 27 27 27 26 26 27 27 27 27 28 28 28 28 28 28 29 29 30 31 31 32 32 33 34 34 35 36 36 36 37 38 38
16 16 17 18 19 19 19 20 21 22 23 24 25 25 26 26 27 27 28 28 29 29 29 30 30 30 29 29 30 31 31 32 33 33 34 34 35 35 35 35 36 36 37
16 17 17 18 18 19 19 18 19 20 21 22 24 25 25 25 26 27 28 28 29 29 29 28 28 28 28 29 30 31 32 32 33 33 33 34 34 34 34 34 35 35 35
16 17 17 17 17 17 18 18 18 20 20 21 22 23 24 25 26 25 25 26 26 26 26 27 27 27 28 29 30 30 31 32 32 32 32 32 32 33 33 33 33 33 32
13 14 14 15 16 16 17 18 18 18 18 20 21 22 22 22 22 23 23 23 23 24 24 24 25 26 28 29 30 30 30 30 31 31 31 31 31 31 31 31 30 30 29
12 12 12 12 13 14 14 14 16 17 17 17 18 19 20 20 20 21 22 22 22 23 24 24 25 26 27 27 28 28 29 29 29 29 29 29 29 29 29 28 28 27 27
12 11 11 11 12 12 12 14 14 15 16 16 17 18 19 18 19 20 20 20 20 21 22 23 24 24 24 25 26 26 27 27 26 27 27 27 27 27 26 26 25 25 24
12 11 11 11 11 11 11 12 12 13 13 14 15 15 16 16 17 17 17 18 19 20 20 21 22 23 23 24 24 24 24 24 24 24 24 24 24 23 23 22 22 21 20
9 9 9 9 10 10 10 10 11 11 12 12 12 13 13 14 15 15 16 17 18 19 19 20 21 21 21 21 22 22 22 22 22 22 21 21 21 20 20 19 18 18 18
8 7 8 8 9 9 9 8 9 9 10 10 11 12 14 14 15 15 15 16 17 18 18 19 19 20 20 20 20 19 19 19 19 19 19 19 18 18 18 17 17 16 16
7 7 7 7 8 8 9 9 8 9 9 10 10 11 12 12 12 13 14 15 16 16 17 17 17 17 17 17 16 16 16 16 17 17 17 16 16 16 16 16 15 15 15
5 5 6 5 5 5 6 7 8 8 8 9 10 10 11 11 11 12 13 13 14 14 14 14 14 14 14 14 14 14 14 15 15 15 15 15 15 15 15 15 15 14 14
3 3 3 4 4 5 5 6 6 7 7 8 9 10 10 11 11 11 12 12 12 12 12 12 12 13 12 12 12 13 13 13 13 13 14 14 14 14 14 14 14 13 13
Wind_Direction
252 250 248 249 248 247 244 243 244 245 247 247 247 249 252 253 253 255 252 253 252 252 256 255 253 254 255 257 258 258 259 261 262 264 266 269 271 273 273 275 276 279 280
249 250 250 247 245 243 240 240 242 244 245 245 246 248 252 253 254 254 250 252 254 258 257 257 258 259 257 258 260 259 261 262 263 264 267 271 273 273 274 275 277 279 281
248 248 248 248 245 244 242 240 241 243 245 246 245 246 251 252 253 253 259 259 258 261 260 259 260 260 259 259 258 259 261 264 264 265 269 272 274 275 274 277 278 281 283
249 248 247 246 246 245 243 241 241 243 246 248 249 248 252 253 254 256 260 263 263 262 262 263 264 261 262 261 260 258 260 263 264 266 268 270 273 274 275 276 279 281 283
249 250 248 245 245 242 241 240 242 242 245 247 248 250 252 254 255 255 262 264 266 263 263 265 267 264 262 261 260 258 260 262 265 267 269 271 272 274 276 276 278 280 282
255 253 250 247 246 243 242 241 243 243 244 246 248 251 253 256 257 258 262 264 265 264 264 267 268 267 263 260 259 259 261 262 264 266 268 269 272 275 276 277 279 281 284
259 253 250 248 246 246 244 243 243 244 245 247 248 250 251 254 258 262 264 263 265 267 269 268 268 268 264 261 262 262 262 264 264 266 268 270 272 274 277 278 280 283 285
261 254 251 249 248 246 245 244 244 245 246 247 247 250 254 256 259 260 264 265 266 269 270 272 271 270 267 264 265 265 265 266 268 269 269 272 272 274 278 281 284 286 287
262 256 251 251 249 247 245 244 244 245 247 248 249 252 255 256 258 260 262 265 268 270 272 273 273 271 268 267 266 267 268 269 270 270 273 275 275 277 281 284 286 288 290
266 260 254 252 251 248 246 245 246 244 245 249 251 252 254 254 256 258 260 263 267 270 273 275 272 271 270 272 270 268 267 270 273 275 277 278 278 281 284 287 289 291 292
271 265 258 252 250 248 246 246 246 244 245 247 250 250 251 254 255 257 259 262 264 266 267 267 266 267 268 268 268 269 271 273 275 277 279 281 282 285 288 291 292 293 293
275 269 260 254 251 249 245 246 246 244 244 246 248 249 251 254 256 257 257 260 260 263 265 266 266 266 267 269 270 271 272 274 277 280 283 285 287 289 291 292 293 293 295
273 265 259 254 253 250 244 246 246 246 247 248 249 249 253 255 256 258 259 262 265 265 267 268 268 267 269 270 270 273 275 277 279 283 285 287 289 290 291 292 293 295 296
272 262 258 255 253 251 247 247 248 247 247 247 249 250 254 256 256 258 259 263 266 266 266 268 270 268 270 271 272 274 277 280 282 285 287 288 289 291 293 293 294 296 297
271 261 258 256 254 252 252 247 247 248 248 247 249 250 251 253 255 257 257 261 263 264 266 267 268 267 268 272 275 276 279 281 283 286 288 289 290 292 293 295 296 296 297
271 262 258 258 255 254 253 250 249 249 248 247 248 249 250 251 255 256 257 258 261 263 265 265 266 266 269 273 276 279 281 283 285 287 288 290 292 293 294 296 296 297 298
275 266 260 257 253 251 251 252 250 247 246 247 248 248 251 252 253 254 255 257 259 263 264 265 267 267 270 274 277 280 282 284 286 288 290 291 293 293 295 296 296 298 300
278 269 264 258 254 253 252 250 251 249 249 250 251 251 252 254 255 255 259 260 262 263 264 267 268 269 272 276 280 281 283 285 287 289 290 291 292 294 295 296 298 299 300
281 276 269 261 255 254 252 248 249 249 250 251 251 250 252 254 256 260 261 263 262 263 265 268 270 274 277 279 280 282 284 286 288 289 291 292 293 295 296 297 298 298 299
283 279 274 268 263 261 256 248 250 249 250 252 253 252 253 256 260 263 265 266 267 268 271 273 275 277 278 281 283 284 285 287 288 290 292 293 294 295 296 297 297 298 299
280 276 274 271 263 260 258 256 251 250 250 250 252 253 255 259 261 263 267 269 270 273 276 277 277 279 281 282 283 284 286 288 289 291 293 294 296 297 298 299 299 300 301
281 275 268 264 260 259 257 251 249 251 254 255 255 258 262 264 263 267 270 273 275 277 279 281 282 282 283 283 284 285 286 288 290 291 293 295 297 298 299 301 302 302 303
286 279 270 265 262 261 262 256 257 258 259 259 260 264 267 267 269 270 273 276 279 280 282 281 281 281 282 283 284 285 286 288 290 292 294 296 298 299 300 301 302 303 305
289 285 279 272 263 259 255 255 256 261 264 266 266 267 268 271 273 275 278 280 281 282 283 282 281 280 280 281 283 284 286 289 292 295 297 299 301 302 303 305 305 305 306
298 288 286 273 264 263 259 260 261 263 266 267 268 271 273 274 277 280 282 284 284 285 284 282 282 279 279 281 283 286 289 293 295 297 300 301 303 304 306 306 306 306 305
322 312 303 279 269 269 271 268 267 267 270 274 276 276 276 277 279 282 284 285 286 287 285 283 281 280 281 282 284 288 293 296 298 301 302 303 304 305 306 307 307 306 306
Height
5793 5793 5794 5795 5797 5800 5803 5806 5808 5811 5814 5816 5818 5819 5821 5823 5824 5825 5828 5829 5831 5832 5835 5837 5839 5841 5843 5844 5845 5847 5848 5849 5850 5851 5851 5851 5851 5852 5851 5851 5851 5851 5850
5786 5785 5786 5787 5790 5791 5795 5799 5802 5805 5808 5810 5812 5813 5816 5817 5818 5819 5821 5824 5826 5828 5830 5832 5834 5836 5837 5839 5840 5841 5842 5843 5844 5845 5845 5846 5846 5846 5845 5845 5845 5844 5844
5779 5778 5779 5779 5782 5783 5787 5791 5795 5798 5800 5802 5804 5806 5809 5812 5814 5816 5817 5819 5821 5823 5825 5826 5827 5830 5831 5833 5834 5835 5836 5837 5838 5839 5839 5840 5840 5839 5839 5839 5838 5837 5837
5772 5772 5773 5773 5775 5778 5781 5785 5788 5791 5793 5796 5799 5801 5804 5807 5809 5811 5813 5814 5816 5817 5819 5820 5822 5823 5825 5826 5828 5829 5830 5831 5832 5832 5832 5833 5833 5833 5832 5832 5831 5831 5829
5765 5766 5767 5768 5769 5772 5775 5778 5781 5784 5787 5790 5793 5796 5798 5801 5804 5806 5807 5809 5810 5812 5813 5815 5816 5817 5819 5820 5821 5822 5823 5824 5825 5825 5826 5826 5826 5825 5825 5825 5825 5824 5822
5760 5761 5762 5763 5764 5766 5769 5771 5773 5777 5781 5784 5787 5791 5793 5796 5797 5800 5802 5803 5805 5807 5808 5809 5810 5811 5812 5813 5814 5815 5816 5817 5818 5819 5819 5819 5819 5818 5818 5817 5817 5816 5815
5755 5755 5756 5757 5758 5760 5762 5764 5767 5771 5774 5778 5781 5784 5787 5790 5793 5795 5796 5797 5799 5801 5802 5803 5804 5805 5806 5806 5808 5808 5810 5811 5811 5812 5812 5812 5812 5811 5810 5809 5808 5808 5807
5749 5749 5750 5751 5752 5754 5756 5758 5761 5765 5768 5771 5774 5778 5781 5784 5787 5789 5790 5792 5794 5795 5796 5797 5798 5799 5799 5800 5801 5802 5803 5804 5805 5805 5805 5805 5805 5804 5803 5802 5801 5799 5798
5743 5744 5745 5745 5746 5748 5750 5753 5755 5759 5762 5766 5769 5772 5775 5778 5781 5783 5785 5787 5788 5790 5791 5792 5792 5793 5793 5794 5795 5796 5797 5798 5798 5799 5798 5798 5798 5797 5796 5794 5793 5791 5789
5738 5738 5739 5740 5741 5743 5745 5747 5750 5753 5756 5760 5763 5766 5769 5772 5775 5778 5780 5781 5783 5785 5786 5787 5787 5788 5788 5789 5789 5790 5791 5792 5792 5792 5792 5791 5791 5790 5788 5787 5785 5783 5781
5735 5734 5734 5734 5736 5738 5740 5742 5745 5747 5751 5755 5758 5761 5763 5766 5769 5771 5773 5775 5777 5779 5780 5781 5782 5783 5783 5784 5784 5785 5786 5786 5786 5786 5785 5784 5784 5782 5781 5779 5777 5775 5772
5731 5730 5729 5730 5732 5733 5735 5737 5739 5742 5746 5749 5752 5755 5757 5760 5763 5765 5767 5769 5771 5772 5774 5775 5776 5777 5778 5778 5779 5780 5780 5780 5780 5779 5778 5777 5776 5774 5773 5771 5769 5766 5763
5726 5726 5726 5726 5728 5729 5731 5733 5735 5737 5741 5744 5747 5749 5752 5754 5756 5759 5761 5763 5765 5766 5768 5769 5770 5771 5771 5772 5773 5773 5773 5773 5773 5772 5771 5770 5768 5767 5765 5762 5760 5757 5755
5721 5721 5722 5722 5724 5725 5727 5729 5731 5733 5736 5738 5741 5743 5746 5748 5750 5753 5755 5757 5759 5760 5761 5762 5763 5764 5765 5766 5766 5766 5766 5766 5766 5765 5764 5762 5760 5759 5757 5754 5752 5749 5746
5717 5718 5718 5719 5720 5721 5723 5725 5726 5728 5731 5733 5736 5738 5740 5742 5744 5746 5749 5751 5752 5753 5754 5756 5757 5758 5758 5759 5759 5759 5759 5759 5758 5757 5756 5754 5753 5751 5748 5746 5743 5740 5738
5714 5714 5715 5715 5716 5717 5719 5720 5722 5724 5726 5728 5731 5733 5735 5737 5739 5740 5742 5744 5745 5747 5747 5749 5750 5751 5751 5752 5752 5752 5752 5751 5750 5750 5748 5746 5744 5743 5740 5738 5735 5732 5729
5711 5711 5711 5711 5712 5713 5715 5717 5718 5720 5722 5724 5726 5728 5729 5731 5733 5734 5736 5737 5739 5740 5741 5742 5743 5744 5745 5745 5745 5745 5745 5744 5743 5742 5741 5739 5737 5735 5732 5730 5727 5724 5721
5707 5707 5707 5708 5709 5710 5711 5712 5714 5716 5717 5719 5721 5723 5724 5725 5727 5728 5730 5731 5732 5734 5735 5736 5736 5737 5738 5738 5738 5738 5738 5737 5736 5735 5733 5731 5729 5727 5725 5722 5719 5717 5714
5705 5705 5705 5705 5705 5706 5707 5708 5710 5712 5713 5715 5716 5718 5720 5721 5722 5724 5725 5726 5727 5728 5729 5730 5730 5731 5731 5732 5731 5731 5731 5730 5729 5727 5725 5724 5722 5719 5717 5715 5713 5711 5708
5702 5702 5702 5702 5703 5703 5704 5705 5706 5708 5709 5711 5713 5714 5715 5716 5718 5719 5720 5721 5722 5723 5724 5724 5725 5725 5725 5725 5725 5724 5724 5723 5722 5720 5718 5717 5715 5713 5711 5709 5707 5704 5702
5699 5699 5699 5699 5700 5700 5701 5702 5704 5705 5706 5707 5709 5710 5711 5712 5713 5715 5715 5716 5717 5718 5718 5719 5719 5719 5719 5719 5718 5718 5717 5716 5715 5714 5712 5711 5709 5707 5705 5703 5701 5698 5696
5697 5696 5696 5697 5697 5698 5699 5700 5701 5702 5703 5704 5705 5706 5708 5709 5710 5710 5711 5712 5712 5713 5713 5713 5713 5713 5713 5712 5712 5712 5711 5710 5709 5708 5707 5706 5704 5702 5700 5698 5696 5694 5692
5695 5694 5694 5694 5695 5696 5697 5697 5698 5699 5700 5701 5702 5703 5704 5705 5706 5707 5707 5708 5708 5708 5708 5708 5708 5707 5707 5707 5707 5706 5706 5705 5704 5703 5702 5701 5699 5697 5695 5693 5691 5690 5688
5693 5693 5692 5693 5693 5694 5695 5695 5696 5697 5698 5699 5699 5700 5701 5702 5702 5703 5703 5703 5703 5703 5703 5703 5703 5703 5702 5702 5702 5702 5701 5701 5700 5699 5697 5696 5695 5693 5691 5689 5688 5686 5684
5692 5692 5691 5691 5692 5692 5693 5694 5694 5695 5696 5696 5697 5697 5698 5698 5699 5699 5699 5699 5699 5699 5699 5699 5699 5699 5698 5698 5698 5698 5697 5697 5696 5695 5693 5692 5691 5689 5688 5686 5684 5682 5681
5692 5691 5691 5691 5691 5691 5692 5692 5693 5693 5694 5694 5694 5695 5695 5695 5696 5696 5696 5696 5696 5696 5695 5695 5695 5695 5695 5695 5694 5694 5694 5693 5692 5691 5690 5689 5687 5686 5684 5682 5681 5679 5678